Location: LDNL
(36.4545°S, 141.6685°E)
Time: 13:15:19
(UTC+11:00)

Courier 1B Rocket - Pass Details

Date: 31 January 2023
Orbit: 920 x 1202 km, 28.2° (Epoch: 25 March)

Event Time Altitude Azimuth Distance (km) Brightness Sun altitude
Rises 13:04:25 0° 276° (W) 3,965 8.1 68.9°
Reaches altitude 10° 13:08:22 10° 295° (WNW) 2,945 7.7 69.2°
Maximum altitude 13:12:42 17° 332° (NNW) 2,402 7.5 69.6°
Drops below altitude 10° 13:16:51 10° 10° (N) 2,806 7.9 69.9°
Sets 13:20:30 0° 29° (NNE) 3,696 8.3 70.2°
